THORAD DELTA 1 DEB, 42614

Orbit data source: Space-Track

THORAD DELTA 1 DEB, 42614 is space debris in SSO originally from a launch on Fri, 15 Nov 1974 UTC launched from the Air Force Western Test Range (AFWTR). Debris objects in space refer to the collection of defunct objects orbiting the Earth. Examples of debris include non-operational satellites, rocket bodies, and fragments generated from explosions, collisions, or faulty payload assembly.

Loading next visibility...
Identifier
42614, 1974-089GF
Orbit
SSO
Country
Flag of USUS
Related business
Manufacturer
Unknown
Mission
Spacecraft
Bus & Motor
Unknown
Mass
Unknown
Launch date (UTC)
1974-11-15 (51 years ago)
Launch vehicle
Unknown
Launch site
Air Force Western Test Range (AFWTR)
Object type
Payload
Rocket body
Debris
Shape & HBR
Unknown shape, 0.1 m
Radar Cross Section
Small (<0.1 m²)

Expand to show TLE details & history
Last TLE update: 2 weeks ago

TLE from 2 weeks ago
0 THORAD DELTA 1 DEB
1 42614U 74089GF  25341.72006164  .00000448  00000-0  28474-2 0  9999
2 42614 101.8666 134.4358 0039481 182.1366 196.6373 12.59723830511874
Epoch: 2025-12-07T17:16Z
TLE epoch observation values (Epoch: 2025-12-07T17:16:53.325Z)
Latitude
18.22836°
Longitude
154.53565°
Altitude
1,455.673 km
Speed
7.122 km/s
True Right ascension
08h 41m 56s
True Declination
18° 08' 08"
Sunlit
Object was in full shadow at epoch
Visualization orbit readout
Latitude
Unknown
Longitude
Unknown
Altitude
Unknown
Speed
Unknown
Apparent Right ascension
Unknown
Apparent Declination
Unknown
Sunlit
N/A
Visualization observer readout
Local Sidereal Time
09:46:19
Azimuth
Unknown
Elevation
Unknown
Doppler factor
Unknown
Orbital elements
Apogee altitude
1,452.42 km
Perigee altitude
1,390.831 km
Semi-major axis
7,799.763 km
Eccentricity
0.00395
Inclination
101.8666°
RAAN
134.4358°
Arg. of periapsis
182.1366°
True anomaly
196.50838°
Mean anomaly
196.6373°
Eccentric anomaly
196.57278°
Mean motion
3.1508 °/min
Orbital period
114.26 mins
BSTAR
0.0028474
Loading maneuver chart data...
Computing Atmospheric mass density...

Documentation

Showing up to 5 results
|